Weather History for KDAW - October, 2012

Change the Weather History Date:

Monday, October 8, 2012

  Actual Average (KSFM) Record (KSFM)
Temperature  
Mean Temperature 46 °F -  
Max Temperature 55 °F 60 °F 80 °F (2011)
Min Temperature 37 °F 37 °F 23 °F (1999)
Degree Days  
Heating Degree Days 19    
Moisture  
Dew Point 41 °F    
Average Humidity 86    
Maximum Humidity 100    
Minimum Humidity 55    
Precipitation  
Precipitation 0.10 in - - ()
Sea Level Pressure  
Sea Level Pressure 30.15 in    
Wind  
Wind Speed 1 mph (NW)    
Max Wind Speed 5 mph    
Max Gust Speed -    
Visibility 7 miles    
Events Fog , Rain    
Averages and records for this station are not official NWS values.
T = Trace of Precipitation, MM = Missing Value Source: NWS Daily Summary

Daily Weather History Graph

Daily Weather History Graph

Search for Another Location

Airport or City:

Trip Planner

Search our weather history database for the weather conditions in past years. The results will help you decide how hot, cold, wet, or windy it might be!

Date:

Astronomy

Oct. 08, 2012 Rise Set
Actual Time 6:49 AM EDT 6:11 PM EDT
Civil Twilight 6:21 AM EDT 6:40 PM EDT
Nautical Twilight 5:48 AM EDT 7:13 PM EDT
Astronomical Twilight 5:14 AM EDT 7:46 PM EDT
Moon No Moon Rise 2:09 PM EDT (10/8)
Length of Visible Light 12h 19m
Length of Day
11h 22m
Waning Gibbous, 46% of the Moon is Illuminated
Oct 8
Waning Gibbous
Oct 15
New
Oct 21
First Quarter
Oct 29
Full
Nov 6
Last Quarter

Hourly Weather History & Observations

Time (EDT) Temp. Windchill Dew Point Humidity Pressure Visibility Wind Dir Wind Speed Gust Speed Precip Events Conditions
12:51 AM 46.9 °F - 45.0 °F 93% 30.04 in 10.0 mi Calm Calm - 0.07 in Rain Light Rain
12:58 AM 46.4 °F - 44.6 °F 93% 30.06 in 10.0 mi Calm Calm - 0.00 in Rain Light Rain
1:13 AM 46.4 °F - 44.6 °F 93% 30.06 in 10.0 mi Calm Calm - 0.01 in   Overcast
1:51 AM 46.9 °F - 45.0 °F 93% 30.07 in 7.0 mi NNW 3.5 mph - 0.03 in Rain Rain
2:51 AM 44.1 °F 42.5 °F 43.0 °F 96% 30.06 in 10.0 mi NW 3.5 mph - 0.00 in   Partly Cloudy
3:20 AM 42.8 °F - 42.8 °F 100% 30.06 in 1.8 mi Calm Calm - N/A   Clear
3:38 AM 42.8 °F - 42.8 °F 100% 30.06 in 2.0 mi Calm Calm - N/A   Partly Cloudy
3:43 AM 42.8 °F - 42.8 °F 100% 30.06 in 1.0 mi Calm Calm - N/A   Mist
3:51 AM 42.1 °F - 41.0 °F 96% 30.06 in 0.8 mi Calm Calm - N/A   Mist
3:55 AM 42.8 °F - 41.0 °F 93% 30.06 in 1.2 mi Calm Calm - N/A   Partly Cloudy
4:08 AM 42.8 °F - 41.0 °F 93% 30.07 in 2.0 mi Calm Calm - N/A   Scattered Clouds
4:16 AM 42.8 °F - 39.2 °F 87% 30.08 in 1.5 mi Calm Calm - N/A   Partly Cloudy
4:20 AM 42.8 °F 41.1 °F 39.2 °F 87% 30.08 in 3.0 mi WNW 3.5 mph - N/A   Partly Cloudy
4:51 AM 42.1 °F - 39.9 °F 92% 30.08 in 10.0 mi Calm Calm - N/A   Clear
4:55 AM 41.0 °F - 39.2 °F 93% 30.09 in 2.0 mi Calm Calm - N/A   Partly Cloudy
4:58 AM 39.2 °F - 39.2 °F 100% 30.09 in 1.0 mi Calm Calm - N/A   Mist
5:01 AM 39.2 °F - 39.2 °F 100% 30.09 in 0.5 mi Calm Calm - N/A Fog Fog
5:08 AM 41.0 °F - 39.2 °F 93% 30.09 in 1.0 mi Calm Calm - N/A   Mostly Cloudy
5:17 AM 42.8 °F - 39.2 °F 87% 30.09 in 10.0 mi Calm Calm - N/A   Mostly Cloudy
5:26 AM 41.0 °F 39.0 °F 39.2 °F 93% 30.10 in 10.0 mi WNW 3.5 mph - N/A   Scattered Clouds
5:51 AM 39.0 °F - 37.0 °F 93% 30.11 in 10.0 mi Calm Calm - N/A   Clear
6:51 AM 37.9 °F - 37.0 °F 97% 30.12 in 2.5 mi Calm Calm - N/A   Clear
7:08 AM 37.4 °F - 37.4 °F 100% 30.13 in 1.8 mi Calm Calm - N/A   Clear
7:13 AM 39.2 °F - 37.4 °F 93% 30.14 in 4.0 mi Calm Calm - N/A   Clear
7:51 AM 42.1 °F - 39.9 °F 92% 30.15 in 10.0 mi Calm Calm - N/A   Clear
9:51 AM 50.0 °F - 43.0 °F 77% 30.20 in 10.0 mi Calm Calm - N/A   Partly Cloudy
10:42 AM 51.8 °F - 42.8 °F 71% 30.20 in 10.0 mi Calm Calm - N/A   Mostly Cloudy
10:51 AM 51.1 °F - 42.1 °F 71% 30.20 in 10.0 mi NW 4.6 mph - N/A   Mostly Cloudy
11:06 AM 51.8 °F - 42.8 °F 71% 30.21 in 10.0 mi Variable 3.5 mph - N/A   Mostly Cloudy
11:51 AM 53.1 °F - 42.1 °F 66% 30.23 in 10.0 mi Calm Calm - N/A   Mostly Cloudy
12:08 PM 51.8 °F - 41.0 °F 67% 30.23 in 10.0 mi Variable 3.5 mph - N/A   Overcast
1:51 PM 53.1 °F - 39.9 °F 61% 30.22 in 10.0 mi Variable 4.6 mph - N/A   Overcast
2:51 PM 55.0 °F - 39.9 °F 57% 30.24 in 10.0 mi Variable 4.6 mph - N/A   Partly Cloudy
3:51 PM 54.0 °F - 37.9 °F 55% 30.25 in 10.0 mi Variable 3.5 mph - N/A   Clear
4:51 PM 53.1 °F - 39.9 °F 61% 30.25 in 10.0 mi South 3.5 mph - N/A   Clear
5:51 PM 51.1 °F - 41.0 °F 68% 30.27 in 10.0 mi Calm Calm - N/A   Clear
6:51 PM 48.0 °F - 41.0 °F 77% 30.28 in 10.0 mi Calm Calm - N/A   Clear
7:51 PM 48.0 °F - 39.9 °F 74% 30.30 in 10.0 mi Calm Calm - N/A   Clear
8:51 PM 44.1 °F - 41.0 °F 89% 30.30 in 10.0 mi Calm Calm - N/A   Clear
9:51 PM 43.0 °F - 41.0 °F 93% 30.31 in 10.0 mi Calm Calm - N/A   Clear
10:51 PM 42.1 °F 39.2 °F 39.9 °F 92% 30.32 in 10.0 mi NNW 4.6 mph - N/A   Clear
11:51 PM 41.0 °F 39.0 °F 39.0 °F 93% 30.32 in 10.0 mi NNW 3.5 mph - N/A   Clear